Time,TemperatureF,DewpointF,PressureIn,WindDirection,WindDirectionDegrees,WindSpeedMPH,WindSpeedGustMPH,Humidity,HourlyPrecipIn,Conditions,Clouds,dailyrainin,SoftwareType,DateUTC
2013-02-14 00:00:00,73.1,71.0,30.00,SW,233,0.0,0.0,93,0.00,,,0.00,Wunderground v.1.15,2013-02-14 05:00:00,
2013-02-14 00:01:00,73.1,71.0,30.00,SW,233,0.0,0.0,93,0.00,,,0.00,Wunderground v.1.15,2013-02-14 05:01:00,
2013-02-14 00:02:00,73.1,71.0,30.00,SSW,208,1.0,1.0,93,0.00,,,0.00,Wunderground v.1.15,2013-02-14 05:02:00,
2013-02-14 00:08:00,73.1,71.0,30.00,SSW,200,0.0,1.0,93,0.00,,,0.00,Wunderground v.1.15,2013-02-14 05:08:00,
2013-02-14 00:12:00,73.0,70.9,30.00,WSW,249,0.0,0.0,93,0.00,,,0.00,Wunderground v.1.15,2013-02-14 05:12:00,
2013-02-14 00:18:00,72.9,70.8,29.99,SSW,205,1.0,2.0,93,0.00,,,0.00,Wunderground v.1.15,2013-02-14 05:18:00,
2013-02-14 00:24:00,72.9,70.8,29.99,SW,222,0.0,0.0,93,0.00,,,0.00,Wunderground v.1.15,2013-02-14 05:24:00,
2013-02-14 00:30:00,72.8,70.7,29.99,SSW,208,1.0,1.0,93,0.00,,,0.00,Wunderground v.1.15,2013-02-14 05:30:00,
2013-02-14 00:35:00,72.8,70.7,29.99,SSW,211,0.0,1.0,93,0.00,,,0.00,Wunderground v.1.15,2013-02-14 05:35:00,
2013-02-14 00:41:00,72.7,70.6,29.99,SSW,204,0.0,0.0,93,0.00,,,0.00,Wunderground v.1.15,2013-02-14 05:41:00,
2013-02-14 00:46:00,72.7,70.9,29.99,WSW,237,0.0,1.0,94,0.00,,,0.00,Wunderground v.1.15,2013-02-14 05:46:00,
2013-02-14 00:52:00,72.7,70.9,29.99,SW,224,1.0,1.0,94,0.00,,,0.00,Wunderground v.1.15,2013-02-14 05:52:00,
2013-02-14 00:58:00,72.7,70.6,29.99,South,173,0.0,1.0,93,0.00,,,0.00,Wunderground v.1.15,2013-02-14 05:58:00,
2013-02-14 01:04:00,72.6,70.5,29.98,SW,215,0.0,0.0,93,0.00,,,0.00,Wunderground v.1.15,2013-02-14 06:04:00,
2013-02-14 01:10:00,72.5,70.4,29.98,SW,216,0.0,0.0,93,0.00,,,0.00,Wunderground v.1.15,2013-02-14 06:10:00,
2013-02-14 01:15:00,72.4,70.3,29.98,SSE,159,0.0,2.0,93,0.00,,,0.00,Wunderground v.1.15,2013-02-14 06:15:00,
2013-02-14 01:20:00,72.3,70.5,29.97,SSW,205,0.0,0.0,94,0.00,,,0.00,Wunderground v.1.15,2013-02-14 06:20:00,
2013-02-14 01:36:00,72.2,70.4,29.97,SE,134,0.0,0.0,94,0.00,,,0.00,Wunderground v.1.15,2013-02-14 06:36:00,
2013-02-14 01:42:00,72.2,70.4,29.97,SSW,201,1.0,2.0,94,0.00,,,0.00,Wunderground v.1.15,2013-02-14 06:42:00,
2013-02-14 02:37:00,72.8,70.3,29.95,SW,233,1.0,2.0,92,0.00,,,0.00,Wunderground v.1.15,2013-02-14 07:37:00,
2013-02-14 02:42:00,72.7,70.6,29.95,SSW,199,1.0,3.0,93,0.00,,,0.00,Wunderground v.1.15,2013-02-14 07:42:00,
2013-02-14 02:47:00,72.7,70.6,29.95,SSW,212,0.0,3.0,93,0.00,,,0.00,Wunderground v.1.15,2013-02-14 07:47:00,
2013-02-14 02:52:00,72.7,70.6,29.95,SSW,207,0.0,3.0,93,0.00,,,0.00,Wunderground v.1.15,2013-02-14 07:52:00,
2013-02-14 02:57:00,72.7,70.6,29.95,SSW,195,0.0,3.0,93,0.00,,,0.00,Wunderground v.1.15,2013-02-14 07:57:00,
2013-02-14 03:02:00,72.6,70.5,29.95,SW,214,1.0,2.0,93,0.00,,,0.00,Wunderground v.1.15,2013-02-14 08:02:00,
2013-02-14 03:07:00,72.6,70.5,29.95,SSW,204,2.0,2.0,93,0.00,,,0.00,Wunderground v.1.15,2013-02-14 08:07:00,
2013-02-14 03:12:00,72.6,70.5,29.95,SSW,203,1.0,2.0,93,0.00,,,0.00,Wunderground v.1.15,2013-02-14 08:12:00,
2013-02-14 03:17:00,72.5,70.4,29.95,SSW,205,0.0,2.0,93,0.00,,,0.00,Wunderground v.1.15,2013-02-14 08:17:00,
2013-02-14 03:22:00,72.5,70.4,29.95,SSW,212,0.0,2.0,93,0.00,,,0.00,Wunderground v.1.15,2013-02-14 08:22:00,
2013-02-14 03:27:00,72.4,70.3,29.94,South,181,0.0,2.0,93,0.00,,,0.00,Wunderground v.1.15,2013-02-14 08:27:00,
2013-02-14 03:32:00,72.3,70.2,29.95,SE,145,0.0,2.0,93,0.00,,,0.00,Wunderground v.1.15,2013-02-14 08:32:00,
2013-02-14 03:37:00,72.2,70.1,29.94,SSW,203,0.0,2.0,93,0.00,,,0.00,Wunderground v.1.15,2013-02-14 08:37:00,
2013-02-14 03:42:00,72.2,70.1,29.94,SW,222,0.0,1.0,93,0.00,,,0.00,Wunderground v.1.15,2013-02-14 08:42:00,
2013-02-14 03:47:00,72.0,69.9,29.94,SW,219,0.0,1.0,93,0.00,,,0.00,Wunderground v.1.15,2013-02-14 08:47:00,
2013-02-14 03:52:00,71.8,70.0,29.94,SSW,205,0.0,0.0,94,0.00,,,0.00,Wunderground v.1.15,2013-02-14 08:52:00,
2013-02-14 03:57:00,71.7,69.9,29.94,SSW,193,0.0,0.0,94,0.00,,,0.00,Wunderground v.1.15,2013-02-14 08:57:00,
2013-02-14 04:02:00,71.6,69.8,29.94,SSW,194,0.0,0.0,94,0.00,,,0.00,Wunderground v.1.15,2013-02-14 09:02:00,
2013-02-14 04:07:00,71.5,69.7,29.94,SSW,195,0.0,0.0,94,0.00,,,0.00,Wunderground v.1.15,2013-02-14 09:07:00,
2013-02-14 04:12:00,71.4,69.6,29.94,SSW,195,0.0,0.0,94,0.00,,,0.00,Wunderground v.1.15,2013-02-14 09:12:00,
2013-02-14 04:17:00,71.3,69.8,29.94,SSW,196,0.0,0.0,95,0.00,,,0.00,Wunderground v.1.15,2013-02-14 09:17:00,
2013-02-14 04:22:00,71.3,69.8,29.94,SSW,196,0.0,0.0,95,0.00,,,0.00,Wunderground v.1.15,2013-02-14 09:22:00,
2013-02-14 04:27:00,71.1,69.6,29.94,SSW,195,0.0,0.0,95,0.00,,,0.00,Wunderground v.1.15,2013-02-14 09:27:00,
2013-02-14 04:32:00,70.9,69.4,29.94,SSW,195,0.0,0.0,95,0.00,,,0.00,Wunderground v.1.15,2013-02-14 09:32:00,
2013-02-14 04:37:00,70.8,69.3,29.94,SSW,195,0.0,0.0,95,0.00,,,0.00,Wunderground v.1.15,2013-02-14 09:37:00,
2013-02-14 04:42:00,70.7,69.2,29.94,SSW,195,0.0,0.0,95,0.00,,,0.00,Wunderground v.1.15,2013-02-14 09:42:00,
2013-02-14 04:47:00,70.7,69.2,29.94,SSW,195,0.0,0.0,95,0.00,,,0.00,Wunderground v.1.15,2013-02-14 09:47:00,
2013-02-14 04:52:00,70.7,69.2,29.94,SSW,195,0.0,0.0,95,0.00,,,0.00,Wunderground v.1.15,2013-02-14 09:52:00,
2013-02-14 04:57:00,70.7,69.2,29.94,SSW,195,0.0,0.0,95,0.00,,,0.00,Wunderground v.1.15,2013-02-14 09:57:00,
2013-02-14 05:02:00,70.6,69.1,29.94,SSW,195,0.0,0.0,95,0.00,,,0.00,Wunderground v.1.15,2013-02-14 10:02:00,
2013-02-14 05:07:00,70.6,69.4,29.94,SSW,195,0.0,0.0,96,0.00,,,0.00,Wunderground v.1.15,2013-02-14 10:07:00,
2013-02-14 05:12:00,70.5,69.3,29.94,SSW,195,0.0,0.0,96,0.00,,,0.00,Wunderground v.1.15,2013-02-14 10:12:00,
2013-02-14 05:17:00,70.7,69.5,29.94,SSW,195,0.0,0.0,96,0.00,,,0.00,Wunderground v.1.15,2013-02-14 10:17:00,
2013-02-14 05:22:00,70.6,69.4,29.94,SSW,195,0.0,0.0,96,0.00,,,0.00,Wunderground v.1.15,2013-02-14 10:22:00,
2013-02-14 05:27:00,70.5,69.3,29.94,SSW,196,0.0,0.0,96,0.00,,,0.00,Wunderground v.1.15,2013-02-14 10:27:00,
2013-02-14 05:32:00,70.8,69.6,29.94,SSW,195,0.0,0.0,96,0.00,,,0.00,Wunderground v.1.15,2013-02-14 10:32:00,
2013-02-14 05:37:00,70.8,69.6,29.94,SSW,195,0.0,0.0,96,0.00,,,0.00,Wunderground v.1.15,2013-02-14 10:37:00,
2013-02-14 05:43:00,70.6,69.4,29.95,SSW,195,0.0,0.0,96,0.00,,,0.00,Wunderground v.1.15,2013-02-14 10:43:00,
2013-02-14 05:47:00,70.5,69.3,29.95,SSW,195,0.0,0.0,96,0.00,,,0.00,Wunderground v.1.15,2013-02-14 10:47:00,
2013-02-14 05:53:00,70.6,69.4,29.95,SSW,195,0.0,0.0,96,0.00,,,0.00,Wunderground v.1.15,2013-02-14 10:53:00,
2013-02-14 05:58:00,70.7,69.5,29.95,SSW,195,0.0,0.0,96,0.00,,,0.00,Wunderground v.1.15,2013-02-14 10:58:00,
2013-02-14 06:03:00,70.6,69.4,29.96,SSW,195,0.0,0.0,96,0.00,,,0.00,Wunderground v.1.15,2013-02-14 11:03:00,
2013-02-14 06:08:00,70.7,69.8,29.96,NW,322,0.0,2.0,97,0.00,,,0.00,Wunderground v.1.15,2013-02-14 11:08:00,
2013-02-14 06:13:00,70.8,69.6,29.96,North,10,0.0,3.0,96,0.00,,,0.00,Wunderground v.1.15,2013-02-14 11:13:00,
2013-02-14 06:18:00,70.9,69.7,29.96,North,10,0.0,3.0,96,0.00,,,0.00,Wunderground v.1.15,2013-02-14 11:18:00,
2013-02-14 06:23:00,70.9,69.7,29.96,North,8,0.0,0.0,96,0.00,,,0.00,Wunderground v.1.15,2013-02-14 11:23:00,
2013-02-14 06:29:00,70.9,69.7,29.97,North,10,0.0,0.0,96,0.00,,,0.00,Wunderground v.1.15,2013-02-14 11:29:00,
2013-02-14 06:34:00,71.0,69.8,29.97,North,10,0.0,0.0,96,0.00,,,0.00,Wunderground v.1.15,2013-02-14 11:34:00,
2013-02-14 06:39:00,71.1,70.2,29.97,North,11,0.0,0.0,97,0.00,,,0.00,Wunderground v.1.15,2013-02-14 11:39:00,
2013-02-14 06:44:00,71.2,70.3,29.97,North,3,0.0,0.0,97,0.00,,,0.00,Wunderground v.1.15,2013-02-14 11:44:00,
2013-02-14 06:49:00,71.3,70.1,29.97,West,271,1.0,1.0,96,0.00,,,0.00,Wunderground v.1.15,2013-02-14 11:49:00,
2013-02-14 06:54:00,71.5,70.3,29.97,NNW,338,0.0,1.0,96,0.00,,,0.00,Wunderground v.1.15,2013-02-14 11:54:00,
2013-02-14 06:59:00,71.6,70.4,29.97,NNE,25,0.0,2.0,96,0.00,,,0.00,Wunderground v.1.15,2013-02-14 11:59:00,
2013-02-14 07:04:00,71.6,70.4,29.98,West,280,0.0,1.0,96,0.00,,,0.00,Wunderground v.1.15,2013-02-14 12:04:00,
2013-02-14 07:09:00,71.7,70.5,29.98,North,351,0.0,1.0,96,0.00,,,0.00,Wunderground v.1.15,2013-02-14 12:09:00,
2013-02-14 07:14:00,71.7,70.5,29.98,North,352,0.0,0.0,96,0.00,,,0.00,Wunderground v.1.15,2013-02-14 12:14:00,
2013-02-14 07:19:00,71.6,70.4,29.98,North,353,0.0,0.0,96,0.00,,,0.00,Wunderground v.1.15,2013-02-14 12:19:00,
2013-02-14 07:24:00,71.6,70.4,29.98,North,353,0.0,0.0,96,0.00,,,0.00,Wunderground v.1.15,2013-02-14 12:24:00,
2013-02-14 07:29:00,71.6,70.4,29.98,North,353,0.0,0.0,96,0.00,,,0.00,Wunderground v.1.15,2013-02-14 12:29:00,
2013-02-14 07:34:00,71.6,70.4,29.98,North,353,0.0,0.0,96,0.00,,,0.00,Wunderground v.1.15,2013-02-14 12:34:00,
2013-02-14 07:39:00,71.7,70.5,29.98,NNE,18,0.0,1.0,96,0.00,,,0.00,Wunderground v.1.15,2013-02-14 12:39:00,
2013-02-14 07:44:00,71.8,70.6,29.98,NNE,18,0.0,0.0,96,0.00,,,0.00,Wunderground v.1.15,2013-02-14 12:44:00,
2013-02-14 07:49:00,71.9,70.4,29.99,NNE,18,0.0,0.0,95,0.00,,,0.00,Wunderground v.1.15,2013-02-14 12:49:00,
2013-02-14 07:54:00,72.1,70.6,29.99,NNE,18,0.0,0.0,95,0.00,,,0.00,Wunderground v.1.15,2013-02-14 12:54:00,
2013-02-14 08:00:00,72.3,70.8,29.98,NNE,19,0.0,0.0,95,0.00,,,0.00,Wunderground v.1.15,2013-02-14 13:00:00,
2013-02-14 08:05:00,72.6,71.1,29.98,NE,35,0.0,1.0,95,0.00,,,0.00,Wunderground v.1.15,2013-02-14 13:05:00,
2013-02-14 08:10:00,72.9,71.4,29.98,NE,36,0.0,0.0,95,0.00,,,0.00,Wunderground v.1.15,2013-02-14 13:10:00,
2013-02-14 08:15:00,73.4,71.6,29.99,NNE,32,0.0,0.0,94,0.00,,,0.00,Wunderground v.1.15,2013-02-14 13:15:00,
2013-02-14 08:20:00,73.9,72.1,29.99,NNE,16,0.0,0.0,94,0.00,,,0.00,Wunderground v.1.15,2013-02-14 13:20:00,
2013-02-14 08:25:00,74.2,72.0,29.99,NNE,16,0.0,0.0,93,0.00,,,0.00,Wunderground v.1.15,2013-02-14 13:25:00,
2013-02-14 08:30:00,74.4,71.9,29.99,NNE,18,0.0,1.0,92,0.00,,,0.00,Wunderground v.1.15,2013-02-14 13:30:00,
2013-02-14 08:35:00,74.4,71.9,29.99,NNE,29,0.0,1.0,92,0.00,,,0.00,Wunderground v.1.15,2013-02-14 13:35:00,
2013-02-14 08:40:00,74.6,72.1,29.99,NNE,30,0.0,1.0,92,0.00,,,0.00,Wunderground v.1.15,2013-02-14 13:40:00,
2013-02-14 08:45:00,74.9,72.1,29.99,East,87,0.0,1.0,91,0.00,,,0.00,Wunderground v.1.15,2013-02-14 13:45:00,
2013-02-14 08:50:00,75.2,72.4,29.99,East,86,0.0,0.0,91,0.00,,,0.00,Wunderground v.1.15,2013-02-14 13:50:00,
2013-02-14 08:55:00,75.5,72.7,30.00,East,86,0.0,0.0,91,0.00,,,0.00,Wunderground v.1.15,2013-02-14 13:55:00,
2013-02-14 09:00:00,75.7,72.6,30.00,East,86,0.0,0.0,90,0.00,,,0.00,Wunderground v.1.15,2013-02-14 14:00:00,
2013-02-14 09:05:00,75.9,72.8,30.00,East,86,0.0,0.0,90,0.00,,,0.00,Wunderground v.1.15,2013-02-14 14:05:00,
2013-02-14 09:10:00,76.2,73.1,30.00,East,85,0.0,1.0,90,0.00,,,0.00,Wunderground v.1.15,2013-02-14 14:10:00,
2013-02-14 09:15:00,76.8,73.6,30.00,East,85,0.0,1.0,90,0.00,,,0.00,Wunderground v.1.15,2013-02-14 14:15:00,
2013-02-14 09:20:00,76.9,73.1,30.00,West,274,0.0,0.0,88,0.00,,,0.00,Wunderground v.1.15,2013-02-14 14:20:00,
2013-02-14 09:25:00,76.8,73.0,30.01,NW,305,0.0,3.0,88,0.00,,,0.00,Wunderground v.1.15,2013-02-14 14:25:00,
2013-02-14 09:30:00,76.5,72.7,30.01,NW,311,1.0,2.0,88,0.00,,,0.00,Wunderground v.1.15,2013-02-14 14:30:00,
2013-02-14 09:35:00,76.2,72.0,30.01,WNW,290,3.0,5.0,87,0.00,,,0.00,Wunderground v.1.15,2013-02-14 14:35:00,
2013-02-14 09:40:00,75.8,71.7,30.01,NE,55,0.0,4.0,87,0.00,,,0.00,Wunderground v.1.15,2013-02-14 14:40:00,
2013-02-14 09:46:00,75.6,71.5,30.01,West,269,0.0,7.0,87,0.00,,,0.00,Wunderground v.1.15,2013-02-14 14:46:00,
2013-02-14 09:51:00,75.3,71.2,30.01,West,259,1.0,3.0,87,0.00,,,0.00,Wunderground v.1.15,2013-02-14 14:51:00,
2013-02-14 09:55:00,75.1,71.0,30.01,WNW,291,0.0,4.0,87,0.00,,,0.00,Wunderground v.1.15,2013-02-14 14:55:00,
2013-02-14 10:01:00,75.1,71.0,30.02,WNW,293,1.0,2.0,87,0.00,,,0.00,Wunderground v.1.15,2013-02-14 15:01:00,
2013-02-14 10:06:00,75.7,71.2,30.02,WNW,285,1.0,4.0,86,0.00,,,0.00,Wunderground v.1.15,2013-02-14 15:06:00,
2013-02-14 10:11:00,76.4,71.6,30.02,NW,304,0.0,2.0,85,0.00,,,0.00,Wunderground v.1.15,2013-02-14 15:11:00,
2013-02-14 10:16:00,77.0,71.8,30.01,North,360,0.0,3.0,84,0.00,,,0.00,Wunderground v.1.15,2013-02-14 15:16:00,
2013-02-14 10:21:00,77.2,71.3,30.01,WNW,300,0.0,1.0,82,0.00,,,0.00,Wunderground v.1.15,2013-02-14 15:21:00,
2013-02-14 10:26:00,76.9,71.3,30.01,West,267,0.0,2.0,83,0.00,,,0.00,Wunderground v.1.15,2013-02-14 15:26:00,
2013-02-14 10:31:00,77.5,71.9,30.01,West,276,1.0,2.0,83,0.00,,,0.00,Wunderground v.1.15,2013-02-14 15:31:00,
2013-02-14 10:36:00,77.7,71.8,30.01,NW,307,0.0,3.0,82,0.00,,,0.00,Wunderground v.1.15,2013-02-14 15:36:00,
2013-02-14 10:41:00,77.9,71.6,30.01,West,266,1.0,3.0,81,0.00,,,0.00,Wunderground v.1.15,2013-02-14 15:41:00,
2013-02-14 10:46:00,78.2,71.9,30.01,West,281,0.0,4.0,81,0.00,,,0.00,Wunderground v.1.15,2013-02-14 15:46:00,
2013-02-14 10:51:00,78.6,71.9,30.01,NNE,16,0.0,1.0,80,0.00,,,0.00,Wunderground v.1.15,2013-02-14 15:51:00,
2013-02-14 10:56:00,78.6,71.5,30.01,WNW,300,0.0,5.0,79,0.00,,,0.00,Wunderground v.1.15,2013-02-14 15:56:00,
2013-02-14 11:01:00,78.8,72.1,30.00,NNE,15,0.0,1.0,80,0.00,,,0.00,Wunderground v.1.15,2013-02-14 16:01:00,
2013-02-14 11:06:00,78.7,71.6,30.00,WSW,249,2.0,5.0,79,0.00,,,0.00,Wunderground v.1.15,2013-02-14 16:06:00,
2013-02-14 11:11:00,78.9,71.8,30.00,WSW,239,0.0,1.0,79,0.00,,,0.00,Wunderground v.1.15,2013-02-14 16:11:00,
2013-02-14 11:16:00,79.2,72.5,30.00,WNW,287,1.0,3.0,80,0.00,,,0.00,Wunderground v.1.15,2013-02-14 16:16:00,
2013-02-14 11:21:00,79.5,72.0,30.00,WNW,283,1.0,4.0,78,0.00,,,0.00,Wunderground v.1.15,2013-02-14 16:21:00,
2013-02-14 11:26:00,79.8,72.3,30.00,SSW,203,0.0,6.0,78,0.00,,,0.00,Wunderground v.1.15,2013-02-14 16:26:00,
2013-02-14 11:31:00,79.9,72.4,30.00,WNW,295,1.0,3.0,78,0.00,,,0.00,Wunderground v.1.15,2013-02-14 16:31:00,
2013-02-14 11:36:00,80.6,72.3,29.99,WNW,282,7.0,11.0,76,0.00,,,0.00,Wunderground v.1.15,2013-02-14 16:36:00,
2013-02-14 11:41:00,81.0,72.3,29.99,West,276,7.0,7.0,75,0.00,,,0.00,Wunderground v.1.15,2013-02-14 16:41:00,
2013-02-14 11:46:00,81.1,72.0,29.99,West,267,7.0,13.0,74,0.00,,,0.00,Wunderground v.1.15,2013-02-14 16:46:00,
2013-02-14 11:51:00,80.8,72.1,29.99,WNW,286,6.0,10.0,75,0.00,,,0.00,Wunderground v.1.15,2013-02-14 16:51:00,
2013-02-14 11:56:00,80.6,71.9,29.99,West,276,5.0,12.0,75,0.00,,,0.00,Wunderground v.1.15,2013-02-14 16:56:00,
2013-02-14 12:01:00,80.8,71.7,29.98,West,266,7.0,7.0,74,0.00,,,0.00,Wunderground v.1.15,2013-02-14 17:01:00,
2013-02-14 12:06:00,80.8,71.7,29.98,West,278,4.0,12.0,74,0.00,,,0.00,Wunderground v.1.15,2013-02-14 17:06:00,
2013-02-14 12:11:00,81.2,72.5,29.98,SW,236,5.0,10.0,75,0.00,,,0.00,Wunderground v.1.15,2013-02-14 17:11:00,
2013-02-14 12:16:00,81.2,72.5,29.97,WSW,256,7.0,10.0,75,0.00,,,0.00,Wunderground v.1.15,2013-02-14 17:16:00,
2013-02-14 12:21:00,81.7,71.0,29.97,WSW,238,5.0,10.0,70,0.00,,,0.00,Wunderground v.1.15,2013-02-14 17:21:00,
2013-02-14 12:26:00,81.9,72.4,29.96,West,264,5.0,11.0,73,0.00,,,0.00,Wunderground v.1.15,2013-02-14 17:26:00,
2013-02-14 12:31:00,81.8,71.5,29.96,West,270,5.0,7.0,71,0.00,,,0.00,Wunderground v.1.15,2013-02-14 17:31:00,
2013-02-14 12:36:00,82.1,70.5,29.95,SW,235,4.0,7.0,68,0.00,,,0.00,Wunderground v.1.15,2013-02-14 17:36:00,
2013-02-14 12:41:00,82.3,71.5,29.95,West,269,2.0,3.0,70,0.00,,,0.00,Wunderground v.1.15,2013-02-14 17:41:00,
2013-02-14 12:46:00,82.5,71.3,29.95,South,183,4.0,8.0,69,0.00,,,0.00,Wunderground v.1.15,2013-02-14 17:46:00,
2013-02-14 12:51:00,83.0,72.2,29.95,WSW,248,4.0,6.0,70,0.00,,,0.00,Wunderground v.1.15,2013-02-14 17:51:00,
2013-02-14 12:56:00,83.2,70.7,29.95,West,276,7.0,9.0,66,0.00,,,0.00,Wunderground v.1.15,2013-02-14 17:56:00,
2013-02-14 13:01:00,83.1,70.6,29.94,WSW,243,1.0,4.0,66,0.00,,,0.00,Wunderground v.1.15,2013-02-14 18:01:00,
2013-02-14 13:06:00,83.2,70.7,29.94,WNW,297,5.0,11.0,66,0.00,,,0.00,Wunderground v.1.15,2013-02-14 18:06:00,
2013-02-14 13:11:00,83.3,70.3,29.93,West,264,2.0,11.0,65,0.00,,,0.00,Wunderground v.1.15,2013-02-14 18:11:00,
2013-02-14 13:16:00,83.6,70.6,29.93,West,260,2.0,11.0,65,0.00,,,0.00,Wunderground v.1.15,2013-02-14 18:16:00,
2013-02-14 13:21:00,83.7,70.2,29.93,West,278,9.0,9.0,64,0.00,,,0.00,Wunderground v.1.15,2013-02-14 18:21:00,
2013-02-14 13:26:00,83.4,70.8,29.93,West,266,7.0,10.0,66,0.00,,,0.00,Wunderground v.1.15,2013-02-14 18:26:00,
2013-02-14 13:31:00,83.0,70.9,29.93,West,266,3.0,5.0,67,0.00,,,0.00,Wunderground v.1.15,2013-02-14 18:31:00,
2013-02-14 13:36:00,83.3,71.6,29.92,WSW,256,3.0,5.0,68,0.00,,,0.00,Wunderground v.1.15,2013-02-14 18:36:00,
2013-02-14 13:41:00,83.7,70.7,29.92,WSW,248,3.0,5.0,65,0.00,,,0.00,Wunderground v.1.15,2013-02-14 18:41:00,
2013-02-14 13:46:00,83.7,70.7,29.91,West,264,4.0,9.0,65,0.00,,,0.00,Wunderground v.1.15,2013-02-14 18:46:00,
2013-02-14 13:51:00,83.9,71.3,29.91,WSW,248,1.0,3.0,66,0.00,,,0.00,Wunderground v.1.15,2013-02-14 18:51:00,
2013-02-14 13:56:00,84.3,70.8,29.91,SW,225,4.0,6.0,64,0.00,,,0.00,Wunderground v.1.15,2013-02-14 18:56:00,
2013-02-14 14:01:00,83.9,70.4,29.91,SW,215,2.0,6.0,64,0.00,,,0.00,Wunderground v.1.15,2013-02-14 19:01:00,
2013-02-14 14:06:00,83.5,73.9,29.91,ESE,109,3.0,9.0,73,0.00,,,0.00,Wunderground v.1.15,2013-02-14 19:06:00,
2013-02-14 14:11:00,82.7,73.6,29.90,SSW,211,1.0,7.0,74,0.00,,,0.00,Wunderground v.1.15,2013-02-14 19:11:00,
2013-02-14 14:16:00,82.7,74.8,29.90,ENE,77,10.0,10.0,77,0.00,,,0.00,Wunderground v.1.15,2013-02-14 19:16:00,
2013-02-14 14:21:00,82.9,74.2,29.89,South,179,4.0,8.0,75,0.00,,,0.00,Wunderground v.1.15,2013-02-14 19:21:00,
2013-02-14 14:26:00,82.8,73.7,29.90,SW,224,4.0,8.0,74,0.00,,,0.00,Wunderground v.1.15,2013-02-14 19:26:00,
2013-02-14 14:31:00,82.6,73.9,29.89,South,177,2.0,4.0,75,0.00,,,0.00,Wunderground v.1.15,2013-02-14 19:31:00,
2013-02-14 14:36:00,82.5,74.2,29.89,ESE,122,1.0,6.0,76,0.00,,,0.00,Wunderground v.1.15,2013-02-14 19:36:00,
2013-02-14 14:41:00,82.5,73.8,29.89,East,82,1.0,6.0,75,0.00,,,0.00,Wunderground v.1.15,2013-02-14 19:41:00,
2013-02-14 14:46:00,82.6,73.5,29.89,SW,215,1.0,6.0,74,0.00,,,0.00,Wunderground v.1.15,2013-02-14 19:46:00,
2013-02-14 14:52:00,82.7,73.2,29.89,SW,222,0.0,8.0,73,0.00,,,0.00,Wunderground v.1.15,2013-02-14 19:52:00,
2013-02-14 14:57:00,83.3,69.8,29.89,WSW,250,8.0,11.0,64,0.00,,,0.00,Wunderground v.1.15,2013-02-14 19:57:00,
2013-02-14 15:02:00,83.7,69.8,29.88,West,270,10.0,17.0,63,0.00,,,0.00,Wunderground v.1.15,2013-02-14 20:02:00,
2013-02-14 15:07:00,83.8,70.3,29.89,WSW,257,6.0,17.0,64,0.00,,,0.00,Wunderground v.1.15,2013-02-14 20:07:00,
2013-02-14 15:12:00,83.9,70.0,29.89,WSW,248,8.0,13.0,63,0.00,,,0.00,Wunderground v.1.15,2013-02-14 20:12:00,
2013-02-14 15:17:00,84.0,70.0,29.88,SW,221,14.0,14.0,63,0.00,,,0.00,Wunderground v.1.15,2013-02-14 20:17:00,
2013-02-14 15:22:00,83.9,69.5,29.88,West,278,11.0,14.0,62,0.00,,,0.00,Wunderground v.1.15,2013-02-14 20:22:00,
2013-02-14 15:27:00,83.6,69.7,29.89,WSW,253,6.0,15.0,63,0.00,,,0.00,Wunderground v.1.15,2013-02-14 20:27:00,
2013-02-14 15:32:00,83.6,70.1,29.88,SW,232,10.0,15.0,64,0.00,,,0.00,Wunderground v.1.15,2013-02-14 20:32:00,
2013-02-14 15:37:00,83.4,69.9,29.89,WSW,246,10.0,15.0,64,0.00,,,0.00,Wunderground v.1.15,2013-02-14 20:37:00,
2013-02-14 15:42:00,83.6,69.7,29.88,WSW,249,8.0,17.0,63,0.00,,,0.00,Wunderground v.1.15,2013-02-14 20:42:00,
2013-02-14 15:47:00,84.0,70.0,29.88,WSW,256,12.0,20.0,63,0.00,,,0.00,Wunderground v.1.15,2013-02-14 20:47:00,
2013-02-14 15:52:00,84.3,70.3,29.89,WSW,246,8.0,16.0,63,0.00,,,0.00,Wunderground v.1.15,2013-02-14 20:52:00,
2013-02-14 15:57:00,84.3,70.3,29.89,WSW,248,7.0,16.0,63,0.00,,,0.00,Wunderground v.1.15,2013-02-14 20:57:00,
2013-02-14 16:02:00,84.4,69.0,29.89,SW,224,11.0,18.0,60,0.00,,,0.00,Wunderground v.1.15,2013-02-14 21:02:00,
2013-02-14 16:07:00,84.2,69.8,29.89,WSW,242,5.0,18.0,62,0.00,,,0.00,Wunderground v.1.15,2013-02-14 21:07:00,
2013-02-14 16:12:00,83.9,70.0,29.90,SSW,208,7.0,13.0,63,0.00,,,0.00,Wunderground v.1.15,2013-02-14 21:12:00,
2013-02-14 16:17:00,83.6,70.1,29.89,West,263,15.0,17.0,64,0.00,,,0.00,Wunderground v.1.15,2013-02-14 21:17:00,
2013-02-14 16:22:00,83.5,70.0,29.90,WSW,248,7.0,13.0,64,0.00,,,0.00,Wunderground v.1.15,2013-02-14 21:22:00,
2013-02-14 16:27:00,83.1,69.7,29.90,WSW,242,12.0,18.0,64,0.00,,,0.00,Wunderground v.1.15,2013-02-14 21:27:00,
2013-02-14 16:32:00,82.7,70.2,29.90,SW,232,11.0,16.0,66,0.00,,,0.00,Wunderground v.1.15,2013-02-14 21:32:00,
2013-02-14 16:37:00,82.5,70.4,29.90,SSW,208,10.0,16.0,67,0.00,,,0.00,Wunderground v.1.15,2013-02-14 21:37:00,
2013-02-14 16:42:00,82.4,70.8,29.90,WSW,256,15.0,18.0,68,0.00,,,0.00,Wunderground v.1.15,2013-02-14 21:42:00,
2013-02-14 16:47:00,82.1,70.9,29.91,WSW,255,7.0,18.0,69,0.00,,,0.00,Wunderground v.1.15,2013-02-14 21:47:00,
2013-02-14 16:52:00,82.0,70.8,29.91,SW,226,8.0,14.0,69,0.00,,,0.00,Wunderground v.1.15,2013-02-14 21:52:00,
2013-02-14 16:57:00,81.6,70.9,29.91,West,259,9.0,20.0,70,0.00,,,0.00,Wunderground v.1.15,2013-02-14 21:57:00,
2013-02-14 17:02:00,81.4,71.1,29.91,WSW,240,12.0,16.0,71,0.00,,,0.00,Wunderground v.1.15,2013-02-14 22:02:00,
2013-02-14 17:07:00,81.4,71.1,29.91,WSW,257,8.0,16.0,71,0.00,,,0.00,Wunderground v.1.15,2013-02-14 22:07:00,
2013-02-14 17:12:00,81.4,71.5,29.91,West,260,7.0,11.0,72,0.00,,,0.00,Wunderground v.1.15,2013-02-14 22:12:00,
2013-02-14 17:17:00,81.2,70.9,29.91,WSW,245,10.0,14.0,71,0.00,,,0.00,Wunderground v.1.15,2013-02-14 22:17:00,
2013-02-14 17:22:00,81.1,71.2,29.91,WSW,258,5.0,15.0,72,0.00,,,0.00,Wunderground v.1.15,2013-02-14 22:22:00,
2013-02-14 17:27:00,80.9,71.0,29.91,West,262,12.0,15.0,72,0.00,,,0.00,Wunderground v.1.15,2013-02-14 22:27:00,
2013-02-14 17:32:00,80.8,71.3,29.92,WSW,257,12.0,16.0,73,0.00,,,0.00,Wunderground v.1.15,2013-02-14 22:32:00,
2013-02-14 17:37:00,80.7,71.2,29.92,West,263,7.0,16.0,73,0.00,,,0.00,Wunderground v.1.15,2013-02-14 22:37:00,
2013-02-14 17:42:00,80.6,71.1,29.92,SW,229,9.0,17.0,73,0.00,,,0.00,Wunderground v.1.15,2013-02-14 22:42:00,
2013-02-14 17:47:00,80.5,71.4,29.92,West,267,8.0,17.0,74,0.00,,,0.00,Wunderground v.1.15,2013-02-14 22:47:00,
2013-02-14 17:52:00,80.4,71.3,29.93,West,259,12.0,12.0,74,0.00,,,0.00,Wunderground v.1.15,2013-02-14 22:52:00,
2013-02-14 17:57:00,80.3,71.3,29.93,WSW,239,11.0,17.0,74,0.00,,,0.00,Wunderground v.1.15,2013-02-14 22:57:00,
2013-02-14 18:02:00,80.2,71.6,29.93,SW,231,8.0,14.0,75,0.00,,,0.00,Wunderground v.1.15,2013-02-14 23:02:00,
2013-02-14 18:07:00,80.1,71.5,29.94,WSW,251,9.0,14.0,75,0.00,,,0.00,Wunderground v.1.15,2013-02-14 23:07:00,
2013-02-14 18:12:00,79.9,71.7,29.94,West,260,6.0,12.0,76,0.00,,,0.00,Wunderground v.1.15,2013-02-14 23:12:00,
2013-02-14 18:17:00,79.8,71.9,29.94,WSW,248,7.0,13.0,77,0.00,,,0.00,Wunderground v.1.15,2013-02-14 23:17:00,
2013-02-14 18:22:00,79.7,71.8,29.94,West,278,6.0,10.0,77,0.00,,,0.00,Wunderground v.1.15,2013-02-14 23:22:00,
2013-02-14 18:27:00,79.4,71.6,29.94,WNW,293,7.0,12.0,77,0.00,,,0.00,Wunderground v.1.15,2013-02-14 23:27:00,
2013-02-14 18:32:00,75.9,69.3,29.94,NW,312,4.0,15.0,80,0.61,,,0.03,Wunderground v.1.15,2013-02-14 23:32:00,
2013-02-14 18:37:00,73.1,68.7,29.95,WSW,242,1.0,15.0,86,0.51,,,0.09,Wunderground v.1.15,2013-02-14 23:37:00,
2013-02-14 18:42:00,71.5,67.8,29.95,WNW,283,3.0,7.0,88,0.10,,,0.09,Wunderground v.1.15,2013-02-14 23:42:00,
2013-02-14 18:47:00,70.3,67.2,29.95,NE,55,1.0,7.0,90,0.08,,,0.10,Wunderground v.1.15,2013-02-14 23:47:00,
2013-02-14 18:52:00,69.4,66.7,29.95,North,357,1.0,8.0,91,0.07,,,0.10,Wunderground v.1.15,2013-02-14 23:52:00,
2013-02-14 18:57:00,69.1,66.7,29.96,NNW,328,1.0,8.0,92,0.04,,,0.10,Wunderground v.1.15,2013-02-14 23:57:00,
2013-02-14 19:02:00,68.7,66.6,29.95,NNE,18,0.0,5.0,93,0.00,,,0.10,Wunderground v.1.15,2013-02-15 00:02:00,
2013-02-14 19:07:00,68.4,66.3,29.95,NE,39,3.0,7.0,93,0.00,,,0.10,Wunderground v.1.15,2013-02-15 00:07:00,
2013-02-14 19:12:00,68.1,66.3,29.96,NE,39,4.0,7.0,94,0.00,,,0.10,Wunderground v.1.15,2013-02-15 00:12:00,
2013-02-14 19:17:00,67.8,66.0,29.95,North,1,1.0,7.0,94,0.00,,,0.11,Wunderground v.1.15,2013-02-15 00:17:00,
2013-02-14 19:22:00,67.3,65.2,29.96,NNE,13,3.0,7.0,93,0.26,,,0.15,Wunderground v.1.15,2013-02-15 00:22:00,
2013-02-14 19:27:00,66.8,65.0,29.95,North,11,1.0,9.0,94,0.17,,,0.17,Wunderground v.1.15,2013-02-15 00:27:00,
2013-02-14 19:32:00,66.3,64.5,29.95,NNE,22,1.0,8.0,94,0.09,,,0.18,Wunderground v.1.15,2013-02-15 00:32:00,
2013-02-14 19:37:00,65.9,64.1,29.96,NNW,341,3.0,9.0,94,0.09,,,0.18,Wunderground v.1.15,2013-02-15 00:37:00,
2013-02-14 19:42:00,65.6,64.1,29.96,NE,46,2.0,6.0,95,0.13,,,0.20,Wunderground v.1.15,2013-02-15 00:42:00,
2013-02-14 19:47:00,65.4,63.9,29.96,NNW,347,0.0,8.0,95,0.11,,,0.20,Wunderground v.1.15,2013-02-15 00:47:00,
2013-02-14 19:52:00,65.2,63.7,29.98,NE,34,1.0,5.0,95,0.47,,,0.24,Wunderground v.1.15,2013-02-15 00:52:00,
2013-02-14 19:57:00,64.9,63.4,29.98,NNE,27,8.0,10.0,95,2.44,,,0.43,Wunderground v.1.15,2013-02-15 00:57:00,
2013-02-14 20:02:00,64.4,62.9,29.98,NE,39,0.0,11.0,95,0.14,,,0.46,Wunderground v.1.15,2013-02-15 01:02:00,
2013-02-14 20:07:00,64.3,62.8,29.98,NNE,33,1.0,11.0,95,0.12,,,0.47,Wunderground v.1.15,2013-02-15 01:07:00,
2013-02-14 20:12:00,64.1,62.9,29.98,NE,56,3.0,9.0,96,0.06,,,0.47,Wunderground v.1.15,2013-02-15 01:12:00,
2013-02-14 20:17:00,64.1,62.9,29.98,NNE,12,1.0,9.0,96,0.04,,,0.47,Wunderground v.1.15,2013-02-15 01:17:00,
2013-02-14 20:22:00,64.1,62.9,29.98,NNE,13,2.0,7.0,96,0.00,,,0.47,Wunderground v.1.15,2013-02-15 01:22:00,
2013-02-14 20:27:00,64.0,62.8,29.98,ENE,68,4.0,10.0,96,0.00,,,0.47,Wunderground v.1.15,2013-02-15 01:27:00,
2013-02-14 20:32:00,64.0,62.8,29.98,ENE,68,1.0,5.0,96,0.00,,,0.47,Wunderground v.1.15,2013-02-15 01:32:00,
2013-02-14 20:37:00,64.0,62.8,29.99,NNW,347,0.0,5.0,96,0.00,,,0.47,Wunderground v.1.15,2013-02-15 01:37:00,
2013-02-14 20:42:00,64.0,62.8,30.00,North,8,3.0,8.0,96,0.00,,,0.47,Wunderground v.1.15,2013-02-15 01:42:00,
2013-02-14 20:47:00,64.0,62.8,30.00,NNW,343,1.0,8.0,96,0.00,,,0.47,Wunderground v.1.15,2013-02-15 01:47:00,
2013-02-14 20:52:00,63.9,62.7,30.01,WSW,250,2.0,4.0,96,0.00,,,0.47,Wunderground v.1.15,2013-02-15 01:52:00,
2013-02-14 20:57:00,63.8,62.6,30.01,NE,41,0.0,8.0,96,0.00,,,0.47,Wunderground v.1.15,2013-02-15 01:57:00,
2013-02-14 21:02:00,63.6,62.1,30.02,NNE,23,4.0,9.0,95,0.00,,,0.48,Wunderground v.1.15,2013-02-15 02:02:00,
2013-02-14 21:07:00,63.4,61.9,30.02,North,4,6.0,9.0,95,0.22,,,0.49,Wunderground v.1.15,2013-02-15 02:07:00,
2013-02-14 21:12:00,63.2,61.7,30.03,ENE,65,1.0,4.0,95,0.19,,,0.51,Wunderground v.1.15,2013-02-15 02:12:00,
2013-02-14 21:17:00,63.2,61.7,30.03,WNW,285,0.0,6.0,95,0.19,,,0.53,Wunderground v.1.15,2013-02-15 02:17:00,
2013-02-14 21:22:00,63.0,61.8,30.02,NNE,25,2.0,7.0,96,0.38,,,0.55,Wunderground v.1.15,2013-02-15 02:22:00,
2013-02-14 21:27:00,63.0,61.8,30.02,NE,40,2.0,8.0,96,0.16,,,0.56,Wunderground v.1.15,2013-02-15 02:27:00,
2013-02-14 21:32:00,63.0,61.8,30.02,NE,42,1.0,7.0,96,0.08,,,0.57,Wunderground v.1.15,2013-02-15 02:32:00,
2013-02-14 21:37:00,63.0,61.8,30.02,NW,323,3.0,7.0,96,0.08,,,0.57,Wunderground v.1.15,2013-02-15 02:37:00,
2013-02-14 21:42:00,63.0,61.8,30.02,East,83,1.0,6.0,96,0.05,,,0.57,Wunderground v.1.15,2013-02-15 02:42:00,
2013-02-14 21:47:00,63.0,61.8,30.02,NNE,25,1.0,6.0,96,0.04,,,0.57,Wunderground v.1.15,2013-02-15 02:47:00,
2013-02-14 21:52:00,63.1,61.9,30.02,NE,34,1.0,7.0,96,0.00,,,0.57,Wunderground v.1.15,2013-02-15 02:52:00,
2013-02-14 21:57:00,63.0,61.8,30.02,NNE,14,4.0,9.0,96,0.00,,,0.57,Wunderground v.1.15,2013-02-15 02:57:00,
2013-02-14 22:02:00,63.0,61.8,30.03,NW,304,2.0,7.0,96,0.00,,,0.57,Wunderground v.1.15,2013-02-15 03:02:00,
2013-02-14 22:07:00,62.8,61.6,30.02,NNE,25,5.0,7.0,96,0.00,,,0.57,Wunderground v.1.15,2013-02-15 03:07:00,
2013-02-14 22:12:00,62.7,61.5,30.02,NNE,18,0.0,4.0,96,0.00,,,0.57,Wunderground v.1.15,2013-02-15 03:12:00,
2013-02-14 22:17:00,62.6,61.4,30.02,ENE,58,1.0,6.0,96,0.00,,,0.57,Wunderground v.1.15,2013-02-15 03:17:00,
2013-02-14 22:22:00,62.6,61.4,30.03,West,273,0.0,4.0,96,0.00,,,0.57,Wunderground v.1.15,2013-02-15 03:22:00,
2013-02-14 22:27:00,62.6,61.4,30.03,ESE,105,0.0,4.0,96,0.00,,,0.57,Wunderground v.1.15,2013-02-15 03:27:00,
2013-02-14 22:32:00,62.6,61.4,30.03,NNW,347,1.0,2.0,96,0.00,,,0.57,Wunderground v.1.15,2013-02-15 03:32:00,
2013-02-14 22:37:00,62.6,61.4,30.03,NNE,32,1.0,4.0,96,0.00,,,0.57,Wunderground v.1.15,2013-02-15 03:37:00,
2013-02-14 22:42:00,62.6,61.4,30.03,East,101,0.0,5.0,96,0.00,,,0.58,Wunderground v.1.15,2013-02-15 03:42:00,
2013-02-14 22:47:00,62.7,61.5,30.03,ESE,109,0.0,5.0,96,0.88,,,0.62,Wunderground v.1.15,2013-02-15 03:47:00,
2013-02-14 22:52:00,62.7,61.5,30.04,ESE,106,2.0,3.0,96,0.77,,,0.69,Wunderground v.1.15,2013-02-15 03:52:00,
2013-02-14 22:57:00,62.6,61.4,30.04,East,94,0.0,3.0,96,0.19,,,0.71,Wunderground v.1.15,2013-02-15 03:57:00,
2013-02-14 23:02:00,62.6,61.4,30.04,East,79,2.0,4.0,96,0.18,,,0.72,Wunderground v.1.15,2013-02-15 04:02:00,
2013-02-14 23:08:00,62.6,61.4,30.03,ENE,75,2.0,6.0,96,0.12,,,0.73,Wunderground v.1.15,2013-02-15 04:08:00,
2013-02-14 23:13:00,62.7,61.8,30.04,NE,39,1.0,4.0,97,0.06,,,0.73,Wunderground v.1.15,2013-02-15 04:13:00,
2013-02-14 23:18:00,62.5,61.3,30.04,North,360,0.0,4.0,96,0.06,,,0.74,Wunderground v.1.15,2013-02-15 04:18:00,
2013-02-14 23:23:00,62.6,61.7,30.04,NE,36,0.0,2.0,97,0.07,,,0.75,Wunderground v.1.15,2013-02-15 04:23:00,
2013-02-14 23:28:00,62.6,61.7,30.03,ENE,58,0.0,2.0,97,0.07,,,0.75,Wunderground v.1.15,2013-02-15 04:28:00,
2013-02-14 23:33:00,62.7,61.8,30.04,North,10,0.0,1.0,97,0.05,,,0.75,Wunderground v.1.15,2013-02-15 04:33:00,
2013-02-14 23:39:00,62.6,61.7,30.03,NE,34,0.0,3.0,97,0.00,,,0.75,Wunderground v.1.15,2013-02-15 04:39:00,
2013-02-14 23:44:00,62.6,61.7,30.03,NE,42,0.0,2.0,97,0.00,,,0.75,Wunderground v.1.15,2013-02-15 04:44:00,
2013-02-14 23:49:00,62.7,61.8,30.03,ENE,59,2.0,4.0,97,0.00,,,0.76,Wunderground v.1.15,2013-02-15 04:49:00,
2013-02-14 23:54:00,62.7,61.8,30.03,ENE,57,0.0,4.0,97,0.00,,,0.76,Wunderground v.1.15,2013-02-15 04:54:00,
2013-02-14 23:59:00,62.7,61.8,30.03,ENE,58,0.0,4.0,97,0.06,,,0.77,Wunderground v.1.15,2013-02-15 04:59:00,